Regional Weather Roundup
Issued by NWS Kansas City/Pleasant Hill, MO

Home | Current Version | Previous Version | Text Only | Print | Product List | Glossary On
Versions: 1 2 3 4 5 6 7 8 9 10 11 12 13 14 15 16 17 18 19 20 21 22 23 24 25 26 27
000
ASUS43 KEAX 251910
RWREAX

WEATHER ROUNDUP FOR EASTERN KANSAS AND NORTHWEST MISSOURI
NATIONAL WEATHER SERVICE KANSAS CITY/PLEASANT HILL MO
200 PM CDT TUE APR 25 2017

KSZ040-057-103>105-MOZ028-029-037-043-252000-
...KANSAS CITY METROPOLITAN AREA...

CITY           SKY/WX    TMP DP  RH WIND       PRES   REMARKS
K.C. INTL      CLOUDY    70  55  59 S9        29.42S
K.C. DOWNTOWN  CLOUDY    72  54  53 S12       29.41S
LEES SUMMIT    CLOUDY    73  54  51 S16       29.43R
OLATHE - IXD   CLOUDY    71  55  56 S10       29.42S
OLATHE - OJC   CLOUDY    70  56  61 S8        29.42R
LAWRENCE       CLOUDY    70  56  61 S7        29.40F

$$

MOZ001>008-011>017-020>025-030>033-038>040-044>046-053-054-252000-
...NORTHERN AND CENTRAL MISSOURI...

CITY           SKY/WX    TMP DP  RH WIND       PRES   REMARKS
ST. JOSEPH     CLOUDY    70  54  56 SW12      29.42R
WHITEMAN AFB   PTSUNNY   78  55  46 S17       29.41F
CLINTON        CLOUDY    77  55  47 S14       29.43S
SEDALIA        MOSUNNY   81  56  42 S16G26    29.43F
WARSAW         NOT AVBL
CHILLICOTHE      N/A     76  54  46 S15G23    29.43F
KIRKSVILLE     CLOUDY    75  48  38 S18       29.45F

$$

MOZ041-047>049-056>058-063>065-088>090-097-252000-
...EASTERN AND SOUTHERN MISSOURI...

CITY           SKY/WX    TMP DP  RH WIND       PRES   REMARKS
ST. LOUIS INTL PTSUNNY   80  52  37 SE21G30   29.55F
SPIRIT OF STL  MOSUNNY   81  47  30 S15G26    29.52F
COLUMBIA       SUNNY     80  52  37 S25G33    29.44F
JEFFERSON CITY SUNNY     82  50  32 S14G25    29.43F
ROLLA          SUNNY     78  50  37 S23G32    29.47F
OSAGE BEACH    SUNNY     78  54  43 SE12G24   29.46F
SPRINGFIELD    CLOUDY    79  57  46 S17       29.45F
BRANSON        PTSUNNY   77  55  47 S12G20    29.51F
JOPLIN         SUNNY     78  58  49 S24G32    29.42F
WEST PLAINS    SUNNY     76  51  41 S16G32    29.57F

$$

IAZ060-094-KSZ022-034>040-054-083-096-NEZ052-066-093-252000-
...KANSAS...SOUTHEAST NEBRASKA AND IOWA...

CITY           SKY/WX    TMP DP  RH WIND       PRES   REMARKS
TOPEKA         CLOUDY    70  55  59 S5        29.39F
MANHATTAN      CLOUDY    68  54  60 NE6       29.40F
EMPORIA        CLOUDY    71  57  61 SW10      29.39S
CHANUTE        CLOUDY    73  57  57 S12       29.41S
WICHITA        CLOUDY    73  57  57 N10       29.39S
OMAHA          CLOUDY    52  43  71 N15G23    29.49S
LINCOLN        CLOUDY    50  42  74 N20       29.52S
FALLS CITY     CLOUDY    66  54  65 NW3       29.41S
LAMONI         CLOUDY    70  50  49 S10G16    29.43F
DES MOINES     CLOUDY    74  48  39 SE16      29.44F

$$





USA.gov is the U.S. government's official web portal to all federal, state and local government web resources and services.